Wind_Speed
72 72 72 72 72 72 72 72 72 72 73 73 73 73 73 72 71 71 69 68 66 64 63 63 63 63 63 64 65 66 67 68 69 69 70 70 70 70 70 70 70 69 69 69 68 68 68 68 67 67 68 68 67 68 67 67 67 66 65 64 64 61 58 56 53 52 56 59 58 60 62 61 59 59 58 56 56 58 58 57 57 57 56 57 55
72 72 72 72 72 72 73 73 72 73 73 73 73 72 71 71 70 68 67 65 63 63 63 63 63 64 65 66 67 68 69 70 71 72 72 72 72 72 72 71 71 70 70 69 69 68 68 68 68 68 68 68 68 68 68 68 67 66 65 63 62 61 58 56 54 52 53 57 58 58 61 62 60 60 59 57 57 58 59 61 61 59 57 57 58
70 71 71 71 71 71 71 71 71 71 71 71 71 70 69 68 67 65 64 63 63 63 63 64 65 66 67 68 69 70 71 73 74 74 74 74 73 73 72 72 72 71 71 70 69 69 68 68 68 69 69 69 69 68 68 67 66 65 64 63 61 61 59 55 53 51 51 54 57 57 59 61 61 62 61 59 58 58 59 62 62 60 59 59 60
69 69 69 69 69 69 69 69 69 69 69 69 68 67 67 66 64 63 63 63 63 64 65 66 67 68 69 70 71 72 74 75 75 75 75 74 74 73 73 72 72 71 71 70 70 70 70 70 70 70 70 70 69 69 68 67 66 65 64 64 63 61 59 56 53 52 51 52 56 58 58 60 61 62 63 61 59 59 59 62 63 60 59 58 59
68 68 67 67 67 67 67 67 67 67 67 66 66 65 65 64 63 63 63 64 65 65 66 68 69 70 71 72 73 74 76 77 77 76 76 74 74 73 73 72 72 71 71 71 71 71 71 71 71 71 70 70 69 69 69 68 67 67 65 64 63 61 59 57 54 53 52 52 55 58 58 59 59 61 64 63 61 60 59 62 65 63 60 57 58
65 65 65 65 65 65 65 66 66 66 66 65 65 64 64 63 63 64 65 65 66 67 68 70 71 72 73 73 75 77 78 78 77 77 75 74 74 73 73 72 72 72 72 72 72 72 72 72 72 72 71 71 71 70 70 70 69 68 67 65 63 61 60 58 56 54 53 53 55 57 59 59 59 60 64 64 62 61 61 63 66 66 63 58 57
63 63 63 63 64 64 65 65 65 65 65 65 64 64 64 64 64 65 66 67 68 69 71 72 73 73 74 75 77 79 79 79 77 76 75 74 73 73 72 72 72 73 73 73 74 74 73 73 73 73 73 73 72 71 70 70 69 68 68 66 65 63 62 61 59 56 55 54 55 57 58 59 60 61 64 64 62 62 63 64 66 67 66 61 57
61 61 62 63 63 64 64 64 64 64 64 64 64 65 65 65 66 67 68 69 70 71 73 74 74 75 76 78 79 80 80 78 77 75 74 73 72 72 72 73 73 74 74 75 75 75 75 75 74 74 74 73 73 73 71 70 69 69 69 68 67 66 65 64 62 60 58 57 56 57 58 59 60 62 64 65 63 63 64 65 66 68 68 64 60
60 60 61 61 62 62 63 63 63 64 64 65 65 66 66 67 68 69 70 71 72 73 74 74 75 76 78 79 80 80 79 77 75 74 73 72 72 72 73 74 74 75 76 76 76 76 76 75 75 74 74 73 73 73 73 72 71 70 70 70 69 68 68 67 66 65 62 60 59 59 58 59 60 62 64 66 65 64 65 65 66 69 69 67 64
59 59 60 60 61 61 62 63 64 64 65 65 66 67 68 68 69 70 71 73 74 74 74 75 76 78 79 80 80 79 77 75 74 73 72 72 73 74 74 75 75 75 76 76 76 76 76 75 75 74 74 74 74 75 75 75 74 72 71 71 70 69 69 69 69 68 67 64 63 62 61 60 61 63 64 66 67 66 65 65 66 69 70 70 68
57 58 58 59 60 61 62 63 64 64 65 66 67 68 69 70 71 72 73 74 74 74 75 76 78 79 80 80 79 77 75 74 73 72 72 73 74 75 75 75 75 75 75 76 76 76 76 76 76 75 75 75 76 76 76 75 74 73 71 69 68 67 66 67 68 70 69 67 66 65 64 62 63 64 65 67 69 67 66 66 67 69 71 71 70
56 57 58 60 61 62 63 63 64 65 66 67 69 70 71 72 73 73 73 74 74 75 76 78 79 80 80 79 77 75 73 72 72 72 73 73 73 74 74 74 75 75 75 76 76 76 77 77 77 77 77 76 75 75 74 74 73 72 70 68 66 65 64 63 64 67 69 69 68 66 66 65 65 66 67 68 70 68 67 67 68 70 72 71 71
56 57 59 61 62 62 63 64 65 66 68 69 70 71 72 73 73 73 74 74 75 77 78 79 79 79 78 77 75 73 72 71 72 72 73 73 73 73 74 75 75 75 76 76 77 77 77 77 77 76 75 75 74 73 72 71 70 68 67 66 64 63 62 61 61 63 66 68 68 67 67 66 67 68 69 69 70 69 68 68 69 71 72 72 72
56 57 59 61 62 63 64 65 66 68 69 71 72 72 73 73 73 74 75 76 77 78 78 78 78 77 76 74 72 71 71 71 72 72 72 73 73 74 75 75 76 76 77 77 77 76 76 75 75 75 74 73 72 70 68 67 65 64 63 62 62 61 60 60 60 60 61 63 66 67 68 67 67 70 72 71 71 71 70 70 70 71 73 73 73
56 58 60 61 62 63 65 67 68 70 71 72 72 73 73 74 75 75 76 77 78 78 78 77 76 75 73 71 70 70 71 72 72 72 72 73 74 75 76 77 77 78 77 77 76 75 75 74 74 73 72 70 68 66 65 63 62 61 61 60 60 60 60 59 58 58 57 58 60 64 67 68 67 70 73 73 72 72 72 71 71 71 73 75 75
57 59 60 62 63 65 67 69 70 71 72 72 73 74 75 75 76 76 77 77 76 76 76 75 74 72 71 70 70 70 71 72 72 73 73 74 75 76 77 78 78 77 77 76 76 75 75 73 72 70 69 68 66 65 63 62 60 59 58 57 57 57 58 58 57 55 54 54 55 58 63 67 68 69 74 75 73 73 73 72 71 73 75 77 76
58 60 62 63 65 67 69 70 71 72 73 74 75 75 75 75 75 75 75 75 75 75 74 73 71 70 70 70 70 71 71 72 73 74 75 76 77 77 78 78 77 77 77 77 76 74 73 72 70 69 68 67 66 64 63 61 59 56 55 54 54 54 54 54 53 52 51 51 52 54 57 63 67 69 73 75 75 74 73 72 73 74 76 77 77
60 62 64 66 67 69 70 71 72 73 74 74 74 74 74 73 73 73 73 74 74 73 72 71 70 69 70 70 70 71 72 73 74 75 76 77 77 77 77 77 77 78 77 76 74 72 70 70 69 68 68 67 66 64 62 60 58 55 53 52 51 51 51 50 50 48 47 47 49 51 53 58 65 69 72 74 75 75 73 73 74 75 76 78 78
62 64 66 67 68 69 70 71 72 72 72 72 72 71 71 72 72 72 73 73 72 71 70 70 70 70 70 71 71 72 73 74 75 76 76 76 76 76 76 77 77 76 74 73 71 70 69 68 68 68 67 66 64 62 60 58 56 54 51 49 48 48 49 49 48 46 43 43 45 48 50 54 61 68 71 72 74 75 74 74 75 74 75 78 80
63 65 65 66 67 68 69 70 70 70 70 69 69 70 70 71 71 72 72 72 71 70 70 70 70 71 71 72 72 73 74 75 75 75 75 75 75 76 76 75 74 72 71 69 68 68 68 67 67 66 65 64 62 59 57 56 54 51 48 45 44 44 46 47 46 43 40 38 40 45 49 52 57 64 68 70 72 74 74 74 75 74 75 79 81
63 64 65 66 67 67 69 69 69 69 68 68 69 69 70 71 72 72 71 71 70 70 70 70 71 72 72 73 73 73 74 74 74 74 74 75 75 75 73 72 70 68 67 67 66 67 67 66 65 64 62 61 59 57 55 53 50 48 44 41 40 40 42 44 43 41 37 36 37 42 46 50 54 59 65 67 69 72 74 74 74 74 76 79 81
64 65 66 66 67 68 68 69 69 68 68 68 69 70 71 71 72 71 71 70 69 69 70 71 72 73 73 73 73 73 73 72 72 73 74 74 73 71 70 68 66 65 65 64 65 65 65 64 62 60 59 57 56 55 53 50 47 45 42 38 36 35 37 39 40 38 35 34 36 39 44 48 51 55 60 64 66 69 73 73 73 74 76 79 81
66 67 67 67 67 68 69 69 69 68 68 69 70 71 72 72 72 71 70 69 69 70 71 72 72 72 72 72 72 72 71 72 72 73 73 71 69 67 66 64 63 62 62 62 62 62 62 60 59 57 55 54 54 53 52 49 46 44 41 37 33 31 32 34 35 34 32 32 35 38 42 46 48 51 56 60 62 66 71 73 73 75 77 78 80
67 68 68 68 68 69 69 69 69 68 68 69 70 71 72 72 71 70 69 69 69 71 72 72 72 71 71 71 70 70 70 71 72 71 70 67 66 64 62 61 61 61 60 60 59 59 58 57 56 54 54 54 54 54 53 50 47 44 41 38 33 29 29 30 30 30 29 30 33 35 39 43 45 47 52 57 59 63 70 73 73 75 77 78 80
68 69 69 69 69 70 70 69 68 68 69 70 71 72 72 71 70 69 68 69 70 71 72 71 71 70 70 69 69 69 70 70 70 68 66 64 62 61 60 59 59 59 58 58 57 56 56 55 55 55 55 56 56 55 52 49 46 43 40 38 33 28 26 26 27 26 26 28 30 33 37 40 41 44 49 53 56 60 68 73 74 75 77 78 80
69 69 69 70 70 70 70 68 68 68 70 71 72 72 71 69 68 68 68 69 70 71 71 70 70 69 68 68 68 69 69 68 67 65 63 61 60 59 59 58 58 57 56 55 55 55 55 55 56 56 56 57 56 53 49 46 44 41 38 35 32 28 24 23 23 23 23 25 28 31 34 37 39 41 45 50 53 57 65 72 74 75 77 78 80
69 70 70 71 71 70 69 68 68 69 70 71 71 71 69 68 67 68 69 69 70 70 69 69 68 68 67 68 69 69 68 66 64 62 60 58 58 57 57 57 56 55 53 53 53 54 55 56 56 57 56 56 55 52 47 42 40 38 35 32 29 26 23 21 20 20 21 24 26 29 32 34 36 39 43 48 51 55 63 71 74 76 77 79 81
69 70 71 71 70 69 68 68 69 70 71 71 70 69 68 67 67 68 69 69 69 69 68 68 67 67 68 69 69 67 65 63 61 59 58 57 57 56 56 54 53 52 52 52 52 53 55 56 56 56 56 55 54 51 46 41 38 35 33 30 27 24 21 19 18 18 20 22 25 27 29 31 33 36 40 46 49 53 61 69 74 76 77 79 81
70 70 70 69 68 67 68 69 70 70 70 69 68 67 67 67 68 68 68 68 68 68 68 67 67 68 69 68 67 64 62 60 59 57 56 56 56 55 53 52 50 50 49 50 51 53 54 55 55 55 55 55 53 51 46 41 37 34 31 28 26 23 20 18 16 16 18 20 23 25 26 28 30 33 38 43 47 52 60 68 74 77 78 79 81
69 69 68 67 66 67 68 69 69 69 68 67 67 66 67 67 68 68 68 68 68 67 67 67 68 69 68 66 64 61 60 58 57 56 55 54 53 51 49 48 47 47 48 49 51 52 53 54 54 55 55 53 51 49 45 41 38 35 31 28 25 22 19 16 15 15 16 18 21 22 23 25 29 33 37 42 46 51 58 67 74 77 78 79 80
67 66 65 65 66 67 68 68 67 66 66 66 66 66 67 68 68 68 68 68 67 67 67 68 69 68 66 64 61 59 57 56 55 54 53 52 50 48 46 45 45 45 46 48 50 52 53 54 54 54 54 52 50 47 44 40 37 34 31 28 24 21 18 16 14 14 15 17 19 20 22 25 29 33 36 41 45 50 56 64 72 76 78 78 79
63 63 64 65 66 66 66 65 65 65 65 65 66 67 67 68 68 67 67 67 67 67 68 69 68 66 63 61 59 57 56 55 54 53 51 49 46 44 43 42 42 43 45 47 49 51 52 53 54 53 53 51 48 46 43 40 37 33 31 28 24 21 18 15 13 13 14 16 17 19 22 25 29 32 36 40 44 49 55 63 71 75 77 78 79
61 63 64 64 64 63 63 63 64 64 65 65 66 67 67 67 67 67 67 67 67 69 69 68 66 63 61 59 57 56 55 54 52 50 48 45 43 41 40 40 41 42 45 47 49 50 51 52 52 52 52 51 48 45 42 40 37 33 30 27 25 21 17 15 13 12 13 14 16 18 21 24 28 32 36 39 43 48 54 62 70 76 79 80 81
61 62 62 61 61 61 62 63 63 64 65 66 66 66 66 66 66 67 67 68 69 69 68 66 63 61 59 57 56 54 53 51 50 47 44 42 40 38 38 38 39 41 43 45 47 49 50 51 51 51 51 50 47 44 41 39 37 34 30 26 24 21 18 15 13 11 12 13 14 16 19 23 27 31 35 39 43 47 53 60 69 76 79 80 81
59 59 59 59 60 61 62 63 64 65 65 65 65 65 65 66 66 67 68 69 69 68 65 62 60 59 57 55 54 52 51 48 46 43 41 39 37 37 36 37 38 40 42 44 46 48 49 49 49 49 49 49 47 44 40 37 36 34 31 27 24 21 17 15 12 11 11 12 13 15 18 21 25 29 34 38 42 46 52 59 66 73 78 80 81
57 57 58 59 60 61 63 64 64 65 65 64 64 64 65 65 66 68 69 69 67 64 62 60 58 57 55 54 52 50 47 45 42 40 38 37 36 35 35 36 37 39 41 43 45 46 47 48 48 48 48 48 47 44 40 37 34 32 30 27 24 21 17 14 12 11 10 11 13 15 17 20 24 29 33 37 41 44 49 56 63 71 77 80 80
56 57 58 60 61 62 63 64 63 63 63 63 63 64 65 66 68 68 67 65 63 61 60 58 56 54 53 51 49 46 43 41 38 37 36 35 34 34 34 36 37 38 40 41 43 44 45 46 47 47 47 47 46 44 41 38 34 31 28 26 24 21 18 14 12 10 10 10 12 14 17 20 25 29 32 36 39 43 47 53 60 67 73 77 78
56 58 59 60 61 62 62 61 61 61 62 63 64 65 66 67 67 66 64 62 60 58 57 55 54 52 50 47 45 42 39 37 36 35 34 33 33 34 35 36 36 37 38 39 41 42 44 45 45 46 46 45 45 44 42 39 35 32 29 25 23 21 18 14 12 10 9 10 11 13 16 20 24 28 31 34 38 41 45 50 56 63 70 74 77
57 58 59 59 59 59 59 59 60 61 62 64 65 66 67 66 65 63 61 59 57 56 54 52 50 48 45 43 40 38 37 35 35 34 33 33 33 33 34 35 35 36 37 38 39 40 42 43 44 44 45 44 44 43 41 39 36 33 30 27 23 21 19 16 12 10 9 9 10 13 16 20 23 26 30 34 37 40 43 47 53 60 67 73 77
56 56 56 56 56 57 58 59 60 62 64 65 66 66 65 63 61 60 58 56 55 53 51 48 46 43 40 38 36 35 34 34 33 33 32 31 32 32 33 34 35 36 36 37 37 38 39 41 42 42 43 43 43 42 41 39 37 34 31 28 25 22 20 17 14 10 9 9 10 12 15 19 22 25 29 32 36 39 42 46 51 57 65 72 77
53 53 54 55 57 58 59 61 62 64 65 65 64 63 61 60 59 57 55 53 51 49 47 44 41 39 37 35 34 33 33 32 31 31 31 31 31 32 32 33 34 35 36 36 37 37 38 38 40 41 41 41 42 41 40 38 37 34 32 29 26 23 21 19 15 12 9 8 9 11 14 17 21 24 28 31 34 38 41 45 49 55 63 70 76
53 54 56 57 59 60 62 63 64 64 63 61 60 59 58 57 56 54 52 50 47 45 42 39 37 36 34 33 33 33 32 32 30 30 30 30 30 31 32 33 34 35 36 37 37 37 38 38 38 39 40 40 40 40 39 38 37 35 32 29 27 24 21 19 17 14 11 8 8 10 12 16 19 23 26 30 33 37 40 44 48 53 60 67 74
56 57 58 60 61 63 63 63 62 60 59 57 56 56 55 54 53 50 48 45 43 40 38 36 35 34 32 31 31 32 32 32 31 30 29 30 30 30 31 32 34 35 36 37 37 37 38 37 37 37 37 38 38 38 38 37 36 35 32 30 27 24 22 19 17 15 12 9 8 9 11 14 18 21 25 28 32 35 39 43 47 51 57 64 71
58 59 61 62 62 61 60 59 57 56 55 54 53 52 51 50 48 46 43 41 38 36 35 34 32 31 31 31 31 30 30 30 30 30 30 30 30 30 31 32 33 34 35 36 36 37 37 37 37 36 35 35 36 36 36 36 35 34 33 31 28 25 23 20 18 15 13 11 9 8 10 12 15 19 23 26 30 33 37 41 45 49 54 60 67
60 60 60 59 58 57 56 55 54 53 52 51 50 48 47 45 43 41 39 37 35 34 32 31 30 29 29 30 30 29 29 29 29 29 30 30 30 31 32 32 33 34 35 36 36 36 36 37 37 36 35 34 34 34 34 34 34 33 33 32 30 27 25 22 19 17 15 12 10 9 9 11 13 17 21 25 28 31 35 39 43 47 52 57 63
57 56 55 54 53 53 52 52 51 50 49 47 45 43 42 41 39 37 36 35 33 32 30 30 29 29 28 28 28 28 28 28 28 29 29 30 31 31 32 33 33 34 35 36 36 36 36 36 36 35 34 33 33 32 32 32 32 31 31 31 30 29 27 24 21 18 16 14 12 10 9 9 12 14 18 22 26 30 33 37 41 45 49 54 59
51 51 50 50 49 49 48 48 47 46 44 42 40 39 38 37 35 34 33 32 31 30 30 29 29 29 28 27 27 27 27 27 28 29 29 30 31 32 33 33 34 34 35 36 37 37 37 37 36 35 34 33 32 31 31 31 30 30 29 29 29 28 27 26 23 21 18 15 13 11 10 9 10 13 16 19 23 27 31 35 39 43 47 51 56
47 47 47 46 46 45 44 43 42 41 39 38 37 36 35 33 32 31 30 30 29 29 29 29 29 28 27 27 27 28 28 28 28 29 30 31 32 32 33 34 34 35 35 36 37 37 37 37 36 35 34 33 32 31 30 29 29 29 28 27 27 26 26 26 25 23 21 18 15 13 11 10 10 11 13 16 20 24 28 32 36 40 44 48 53
44 44 43 42 41 40 39 38 37 36 35 34 33 33 32 31 30 29 29 29 29 29 28 28 28 27 27 28 28 28 29 29 29 30 31 32 32 33 34 34 35 35 36 37 38 38 38 37 35 35 34 33 32 32 31 30 29 28 27 27 26 25 24 24 24 24 23 21 19 16 14 12 11 11 12 14 17 21 25 29 33 37 41 46 50
40 40 39 38 37 36 35 34 33 33 32 31 31 31 30 30 29 28 28 28 28 28 28 28 27 27 27 28 29 29 30 30 31 31 32 33 33 34 34 35 35 35 36 37 38 38 38 37 35 34 34 33 32 32 31 31 30 29 27 26 25 24 23 23 22 22 22 22 21 20 18 16 14 12 12 13 15 18 21 25 29 34 38 42 46
37 36 35 35 34 33 32 31 31 30 30 30 29 29 29 29 28 28 27 27 28 28 28 28 28 28 28 29 29 30 31 32 32 32 33 33 34 35 35 35 36 36 37 38 38 37 36 35 34 34 33 33 32 32 32 32 31 30 29 27 26 24 23 23 22 21 20 20 20 21 20 19 18 16 15 14 14 16 18 21 25 30 34 38 43
Wind_Direction
275 276 278 280 281 283 284 285 287 288 289 290 292 292 293 294 294 294 294 294 294 295 296 297 297 298 298 298 299 299 299 299 299 298 298 297 297 296 295 294 294 293 292 291 290 290 289 288 288 287 287 287 286 286 286 286 285 285 284 284 283 281 278 274 267 262 263 261 256 255 255 253 250 249 247 243 239 233 230 230 230 232 235 236 235
276 277 279 281 282 283 285 286 287 288 289 290 291 292 292 293 293 294 294 294 295 296 297 297 297 298 298 298 299 299 300 300 300 300 300 299 298 297 296 295 295 294 293 292 291 290 289 289 289 288 288 288 287 287 287 286 286 285 285 284 284 283 281 277 272 266 263 262 257 252 251 251 249 248 245 243 240 235 230 229 230 231 234 235 233
277 278 280 281 283 284 285 287 287 288 289 290 291 291 292 292 293 293 294 295 296 296 296 296 297 298 298 299 299 300 301 302 302 301 300 299 298 297 296 295 294 294 293 293 292 291 291 291 290 290 290 289 289 288 287 287 286 285 285 284 283 282 281 278 274 269 264 262 259 253 249 248 246 246 245 242 239 236 231 228 229 232 233 234 232
279 280 281 282 284 285 286 287 287 288 289 290 290 291 291 292 292 293 294 295 295 295 296 297 297 298 299 300 300 301 302 302 302 301 300 299 298 297 296 295 295 294 294 294 294 293 292 292 291 291 290 290 290 289 289 288 287 286 285 285 284 282 280 277 274 271 266 263 260 256 251 247 244 243 243 241 238 236 232 228 227 229 231 233 231
280 281 282 283 284 285 285 286 287 288 288 289 290 290 291 291 292 293 294 295 296 296 297 298 299 300 300 301 301 302 302 302 302 301 300 299 298 297 297 296 296 296 295 295 294 294 293 293 292 292 291 290 290 289 289 288 287 287 286 285 284 282 280 277 273 269 266 264 261 258 254 250 245 242 240 240 238 235 232 228 225 226 228 231 230
280 281 282 283 284 285 285 286 287 288 288 289 289 290 290 291 292 293 294 295 296 297 298 299 300 301 301 301 301 302 302 302 301 301 300 299 299 298 298 297 297 296 296 295 295 295 295 294 294 293 292 291 291 290 290 289 288 287 286 285 283 281 280 277 273 269 265 262 260 259 256 252 248 243 239 238 236 234 232 228 225 225 225 228 228
281 282 283 283 284 285 286 286 287 287 288 288 289 289 290 291 292 294 295 296 298 299 300 301 301 301 301 301 301 302 302 302 302 301 300 299 299 298 298 297 297 296 296 296 296 296 296 295 295 294 293 293 292 291 290 289 287 286 285 284 282 281 279 276 273 269 265 261 259 257 255 253 250 245 241 237 234 232 231 229 225 224 223 224 225
282 282 283 284 284 285 286 286 286 287 288 288 289 289 291 292 293 295 296 298 299 300 301 301 301 301 301 301 302 303 303 302 302 301 300 299 299 298 298 298 298 298 298 298 298 297 297 296 295 294 293 292 292 291 289 288 286 285 283 282 280 278 277 274 272 269 265 261 258 255 252 251 249 246 242 238 234 231 230 228 225 223 222 221 223
282 283 283 284 285 285 285 286 286 287 288 288 289 290 291 293 294 296 297 299 300 301 301 301 301 301 301 302 302 303 302 302 301 300 300 299 299 299 299 299 298 298 298 298 298 297 297 296 295 294 293 293 292 290 289 287 285 283 282 280 278 276 275 273 270 268 264 261 258 254 250 248 246 244 242 239 235 231 228 226 224 223 221 220 222
282 283 284 284 285 285 285 286 286 287 288 289 290 291 292 294 295 297 298 299 300 300 300 300 300 301 301 302 302 302 302 301 300 300 300 300 299 299 299 299 299 298 298 298 298 297 297 296 296 295 294 293 292 291 290 288 286 284 281 279 277 275 273 271 269 266 263 259 256 253 249 246 243 241 240 238 235 231 228 226 223 222 220 219 220
283 284 285 284 284 284 285 286 287 288 289 290 290 291 293 294 296 297 298 299 299 299 299 299 300 301 301 302 302 302 301 300 300 300 300 299 299 299 299 299 299 299 299 299 299 298 298 298 297 296 296 294 293 292 291 290 288 286 284 280 277 274 271 269 267 265 263 259 254 251 247 245 242 239 237 235 234 230 227 225 222 220 219 218 218
283 284 284 284 284 285 286 287 288 288 289 290 291 292 293 295 296 297 298 298 298 298 299 299 300 301 302 302 302 301 300 300 300 300 299 299 299 299 300 300 300 300 300 300 300 299 299 299 298 297 297 296 295 294 292 291 290 288 287 284 281 277 272 268 264 262 260 258 254 250 245 242 240 238 235 233 232 229 226 224 221 218 218 217 216
284 284 284 284 285 286 287 287 288 289 289 290 291 292 294 295 296 296 296 297 297 298 299 300 300 301 302 301 301 300 300 300 300 300 300 300 300 301 301 301 301 301 301 301 301 300 300 300 299 299 298 297 297 296 295 294 292 291 289 287 283 280 275 270 265 260 257 255 254 250 245 240 237 237 235 231 230 228 225 222 221 217 216 215 215
284 284 284 285 286 286 287 287 288 289 290 291 292 293 294 295 295 296 296 296 297 298 299 300 301 301 302 301 301 301 301 301 301 301 302 302 302 303 303 303 303 302 302 302 302 301 301 301 301 300 300 299 298 298 297 296 295 293 291 289 286 282 278 273 268 262 256 253 251 250 247 241 235 234 234 231 228 227 225 221 219 216 214 214 214
284 284 284 285 285 286 287 288 288 290 291 292 293 293 294 294 295 295 296 297 298 299 300 301 302 302 302 302 302 302 302 302 303 303 304 304 304 304 304 304 304 303 303 303 304 304 303 303 303 302 302 301 301 300 299 298 297 295 293 290 286 283 279 274 270 265 260 254 250 247 246 242 236 232 232 231 227 225 224 221 217 215 213 212 213
284 284 284 284 285 286 287 288 289 290 291 292 293 293 294 294 295 295 296 298 299 300 301 302 302 303 303 303 303 303 303 304 305 305 305 306 306 305 305 305 305 305 305 306 306 306 306 305 305 304 304 304 304 303 302 301 299 296 293 290 286 283 279 276 272 268 263 258 252 246 243 242 238 232 230 230 227 224 223 220 216 214 212 211 212
283 283 283 284 285 286 288 289 290 290 291 292 292 293 294 294 295 296 297 299 300 301 302 302 303 303 303 303 304 305 305 306 306 306 307 306 306 306 306 306 307 307 308 308 307 307 307 307 307 307 307 307 306 306 305 303 301 298 295 292 288 284 280 276 273 269 264 259 254 247 242 240 238 234 230 228 227 224 222 220 216 213 211 210 211
281 282 283 284 286 287 288 289 290 290 291 292 292 293 294 295 296 297 299 300 302 302 303 303 303 304 304 305 306 306 307 307 307 307 307 306 306 306 307 308 308 308 308 308 308 309 308 308 309 309 309 309 308 308 307 305 303 301 298 295 291 287 282 278 274 269 263 258 254 249 242 237 236 234 230 227 225 224 222 219 216 213 210 209 210
280 282 283 285 286 287 288 289 290 291 291 292 293 294 295 296 297 299 301 302 302 303 303 304 304 305 306 307 307 307 308 308 307 307 306 306 307 308 308 309 309 309 309 309 309 309 310 310 310 310 310 310 310 310 309 307 305 302 300 296 292 287 283 279 275 271 264 257 252 248 243 236 234 233 231 226 224 223 221 218 216 213 209 208 209
282 283 284 286 287 288 289 290 291 292 292 293 294 295 296 297 299 301 302 303 303 303 304 304 305 306 307 308 308 308 307 307 306 306 307 307 308 309 309 309 309 309 310 310 310 310 311 311 311 311 311 312 312 311 310 308 306 304 301 297 293 288 283 279 276 273 267 258 250 246 242 237 233 232 231 227 222 221 220 218 216 212 209 208 209
283 284 285 287 288 290 291 292 292 293 293 294 295 296 297 299 300 302 303 303 303 304 304 305 306 307 307 307 307 307 306 306 306 307 307 308 309 309 309 310 310 310 311 311 311 311 311 311 312 312 313 314 314 314 312 311 309 306 302 298 294 289 283 280 277 274 269 261 250 244 240 237 233 230 230 227 222 219 218 217 215 212 209 208 208
284 285 286 288 290 291 292 293 293 294 294 295 296 297 298 300 302 303 303 303 303 304 305 305 306 306 306 306 306 306 306 307 307 308 309 309 310 310 310 311 311 311 312 311 311 311 311 311 312 313 314 316 317 316 315 315 312 310 306 302 297 290 283 279 277 274 269 260 251 243 239 237 233 230 229 227 222 217 216 216 214 211 209 208 208
285 286 288 290 291 292 293 294 294 294 295 295 296 298 299 301 302 303 303 303 303 304 304 305 305 305 306 306 306 307 307 308 308 309 309 310 311 311 311 311 311 311 311 311 310 310 311 311 313 315 317 320 321 321 321 320 318 315 312 307 302 294 285 279 276 273 267 259 251 243 239 236 233 229 227 226 221 215 214 214 213 211 209 208 207
285 287 289 291 292 293 294 294 294 294 295 296 297 298 300 301 302 302 302 303 303 303 304 304 305 305 305 306 307 307 308 309 310 310 311 311 311 311 311 311 311 311 310 310 310 311 312 314 316 320 323 325 326 326 325 323 321 319 315 311 307 299 289 281 276 271 265 257 250 243 239 236 233 229 226 224 220 214 211 211 211 210 209 208 207
285 287 289 291 292 293 293 293 293 294 294 295 297 298 300 301 301 301 302 302 303 303 303 304 305 305 306 307 308 308 309 310 311 311 311 312 312 311 311 311 311 311 311 311 312 313 316 319 322 325 328 330 329 327 326 324 321 319 317 313 309 304 293 283 277 271 263 255 249 243 239 236 233 228 225 223 219 212 209 209 209 209 208 207 207
285 287 289 290 291 292 292 292 293 293 294 296 297 299 300 300 301 301 302 302 303 303 303 304 305 306 307 308 309 310 311 311 311 311 312 312 312 312 312 311 311 311 312 313 315 318 320 324 327 329 331 331 329 327 327 325 322 320 317 314 311 306 298 287 279 271 262 254 247 242 238 236 232 227 222 221 218 211 207 207 208 208 208 207 206
285 287 288 289 290 291 291 292 292 293 294 296 297 298 299 300 300 301 301 302 303 303 303 304 305 307 308 310 311 312 312 312 311 312 312 312 312 312 311 311 312 313 315 317 319 322 325 327 329 330 331 331 330 328 328 328 325 322 319 316 313 308 302 292 282 272 261 252 246 241 238 236 231 225 220 218 216 211 206 205 206 207 207 207 206
286 287 288 289 290 290 291 291 292 293 295 296 297 298 299 299 300 301 302 302 303 303 304 305 307 309 310 311 312 312 312 312 312 312 312 312 312 312 312 313 314 316 318 321 323 325 327 328 329 330 332 333 332 330 330 331 329 326 323 320 317 312 306 297 285 272 261 253 247 242 238 235 231 226 220 216 213 209 204 203 204 205 206 207 207
285 286 287 288 289 289 290 291 292 294 295 296 297 297 298 299 300 301 302 302 303 304 305 307 309 310 311 312 312 312 311 311 311 312 313 313 313 313 313 314 316 319 321 323 324 326 327 328 330 332 334 335 334 332 332 333 333 330 328 325 321 316 310 301 289 275 262 254 248 243 239 235 229 224 220 216 213 208 204 202 203 204 206 206 207
284 285 286 287 288 288 289 291 292 293 294 295 296 297 298 300 301 301 302 302 303 305 306 308 310 311 311 311 311 311 311 311 311 312 312 312 312 312 313 315 317 320 322 324 325 326 327 329 331 333 335 336 336 335 334 335 336 333 332 330 326 321 315 306 293 279 264 254 248 243 238 233 227 222 218 214 212 208 204 202 202 204 205 206 207
283 284 285 286 287 288 289 291 292 292 293 294 296 298 299 300 300 301 301 302 304 306 308 310 311 311 311 310 310 310 310 311 311 311 311 311 311 312 314 316 319 321 323 325 325 326 328 331 333 334 335 337 338 338 336 337 338 336 334 333 331 326 319 310 296 279 264 253 246 240 233 228 225 221 217 213 211 207 204 202 202 203 205 206 207
282 283 284 285 287 288 289 290 291 292 293 295 296 298 298 299 299 300 301 303 305 307 309 310 310 310 309 309 309 310 310 310 311 311 311 310 311 313 316 318 320 322 324 324 325 327 329 331 333 334 336 338 340 340 339 338 339 339 338 336 333 329 323 313 299 281 265 253 245 237 231 227 224 220 216 213 210 207 204 202 201 203 204 205 206
282 283 284 286 287 288 288 289 290 292 293 295 296 296 297 298 299 300 302 304 306 308 309 309 309 308 308 309 309 310 310 310 310 310 309 310 312 314 317 319 322 324 325 326 327 328 330 331 333 334 336 339 341 343 341 340 340 341 341 339 336 332 326 316 302 285 268 255 246 238 231 227 224 220 216 213 210 208 205 202 201 202 203 205 206
282 284 285 286 286 287 288 289 290 292 293 294 295 295 296 297 299 301 303 305 307 308 308 308 307 307 307 308 309 309 309 309 308 308 308 310 312 315 318 321 324 325 326 326 327 328 329 331 333 335 337 339 342 344 344 342 341 341 342 342 339 333 328 319 307 290 271 256 246 238 232 228 225 221 218 214 210 208 207 205 203 202 203 205 206
282 283 284 284 285 286 288 289 290 291 292 293 293 295 296 298 300 302 304 305 306 306 306 306 306 306 307 308 308 308 307 307 307 307 307 310 313 317 320 323 324 325 326 326 327 328 330 331 333 336 338 339 342 345 346 345 343 342 343 344 342 337 330 322 311 295 275 257 244 235 230 228 226 224 220 217 212 209 207 206 205 204 204 205 206
281 282 283 284 285 286 287 288 289 289 290 292 293 295 297 299 301 303 304 304 305 305 304 304 305 306 307 307 307 307 306 306 305 306 309 313 316 319 321 322 324 326 327 327 328 329 330 332 334 336 338 340 342 345 347 347 346 345 344 345 344 341 334 325 315 300 279 260 245 234 227 224 224 223 222 220 216 212 209 208 206 205 205 206 206
281 281 282 283 283 284 285 286 287 288 290 292 294 296 298 300 301 302 303 303 303 303 303 304 305 306 306 306 305 305 305 304 305 307 310 314 316 318 321 324 326 326 327 327 328 329 331 332 334 337 339 341 342 345 347 348 347 346 347 347 346 343 337 329 319 305 285 264 248 235 225 221 221 221 220 219 219 215 211 209 208 207 206 207 207
279 280 280 280 281 282 284 286 287 290 292 294 296 298 299 300 301 301 301 301 302 302 303 304 305 305 305 305 304 304 303 304 306 309 313 316 318 321 323 325 325 325 325 327 329 330 332 334 336 337 339 341 343 345 347 349 349 348 348 349 349 347 341 332 322 310 291 270 251 237 226 221 221 221 220 219 219 218 214 211 210 208 207 206 208
277 278 278 280 281 283 285 287 290 292 294 296 297 298 299 299 299 300 300 300 301 302 303 303 304 304 304 304 304 303 304 306 309 312 315 318 320 321 322 322 323 324 325 327 330 332 333 335 336 338 339 341 343 345 347 348 350 349 348 349 351 351 347 339 327 315 298 276 256 241 230 224 221 221 220 219 219 218 216 214 211 209 207 206 207
276 278 280 282 284 286 288 290 292 294 295 296 297 297 298 298 298 298 299 300 301 302 303 303 303 303 303 303 302 302 303 306 310 312 314 316 318 319 320 321 322 323 326 328 331 333 335 336 337 338 339 341 342 344 346 348 350 350 350 349 350 352 351 345 334 320 304 284 263 245 234 228 223 221 220 220 219 218 217 215 213 210 208 207 208
279 281 283 285 287 289 290 292 293 294 295 295 296 296 296 297 297 298 299 300 301 301 301 302 302 303 303 302 301 301 303 306 309 311 312 315 317 318 320 321 322 324 327 329 331 334 335 337 338 339 340 341 342 343 345 347 349 350 351 350 349 350 351 349 340 327 310 290 271 253 239 231 227 223 221 220 219 219 218 216 214 212 210 209 209
283 285 286 288 289 290 291 292 292 293 293 294 294 295 295 295 296 297 299 300 300 300 301 301 302 302 302 301 302 303 305 307 309 310 311 314 316 317 319 321 323 325 328 330 333 334 336 338 340 340 341 342 342 343 344 346 347 349 350 350 349 348 349 349 346 336 319 297 276 260 246 235 229 226 224 222 220 219 218 217 216 214 212 211 211
285 286 287 288 289 290 290 291 291 291 292 292 293 294 294 294 295 297 298 299 299 299 300 301 301 301 301 301 303 305 306 307 308 310 311 313 315 317 319 321 323 325 328 331 333 335 337 338 340 341 342 342 343 343 343 345 346 347 348 349 349 348 347 347 346 341 329 309 284 263 251 241 234 229 226 224 222 221 220 219 218 216 215 214 213
285 286 287 287 287 288 288 289 289 290 291 292 292 292 293 294 295 297 297 298 298 299 300 300 300 300 300 302 303 305 305 306 307 309 311 313 315 317 319 321 323 325 327 330 333 335 337 338 339 341 342 343 343 343 344 344 344 345 346 347 348 348 347 345 344 343 338 325 302 274 255 246 239 233 229 226 225 223 221 220 219 218 217 216 215
284 284 285 285 286 286 287 287 288 289 290 291 291 292 292 294 295 296 297 297 298 299 298 298 298 298 300 302 303 304 304 304 306 308 311 313 315 316 318 320 322 324 326 329 332 335 337 337 338 339 341 343 343 344 344 344 344 344 344 345 345 346 347 346 345 343 340 335 320 294 267 249 242 237 233 230 227 225 224 223 222 221 220 218 217
282 282 283 283 284 285 286 287 288 289 289 290 291 292 293 293 295 296 296 297 298 298 297 297 297 298 300 301 301 302 302 303 306 308 310 312 314 316 317 319 321 323 326 328 330 333 335 337 337 338 339 341 343 344 344 344 344 344 344 343 343 343 343 344 344 342 338 335 329 315 289 263 247 240 236 234 231 228 226 225 224 223 222 221 220
280 280 281 282 283 285 286 286 287 288 289 290 291 292 293 293 295 295 296 296 296 296 297 297 298 299 300 300 300 301 302 304 306 308 310 311 313 314 316 318 320 322 324 327 329 331 334 336 336 336 337 339 341 343 343 344 344 344 344 343 342 341 340 340 340 340 338 334 330 322 309 285 261 246 239 236 234 232 229 227 226 225 224 224 223
279 280 281 282 283 283 284 285 286 288 290 291 291 292 292 293 294 294 294 294 295 295 296 297 298 299 300 300 301 302 303 305 306 308 309 311 312 313 315 317 319 321 323 325 327 329 332 334 335 335 335 337 338 340 342 343 343 343 343 342 342 341 339 337 336 336 335 333 329 323 315 302 283 262 247 239 236 234 233 231 229 227 226 226 225
278 279 280 281 281 282 284 285 287 289 290 291 291 291 292 292 292 292 293 293 294 294 295 296 297 297 298 299 300 301 303 305 306 308 309 310 311 312 314 316 318 320 322 323 325 327 329 331 332 333 333 334 336 337 339 341 342 342 342 341 341 340 339 337 335 333 331 330 328 324 318 309 297 281 263 249 241 237 235 234 232 231 229 228 227
277 278 279 281 282 284 285 287 288 289 290 290 290 290 291 291 291 292 292 293 293 294 295 295 296 296 297 298 300 301 303 304 306 307 308 309 311 312 313 314 316 318 320 322 323 325 326 328 330 330 331 331 333 335 336 337 339 340 340 339 339 338 337 336 334 331 329 327 325 322 319 313 305 294 280 266 253 244 239 236 235 234 233 231 230
277 278 280 281 283 284 286 287 289 289 290 290 290 290 290 291 292 293 293 294 294 295 295 296 297 297 298 299 300 301 303 304 306 307 308 309 310 311 312 313 315 316 318 320 321 322 324 326 328 328 328 329 330 332 333 334 334 335 336 337 336 336 335 333 332 330 327 324 321 319 317 314 309 302 293 281 269 258 249 243 239 236 235 234 233
Height
10663 10663 10662 10660 10658 10655 10653 10650 10648 10646 10644 10641 10639 10637 10635 10633 10630 10628 10626 10623 10621 10618 10615 10613 10610 10608 10605 10603 10600 10597 10595 10592 10588 10585 10582 10579 10575 10572 10569 10566 10563 10560 10557 10555 10552 10549 10547 10545 10543 10540 10538 10537 10535 10533 10532 10530 10529 10528 10527 10527 10526 10527 10528 10530 10535 10537 10531 10529 10533 10534 10531 10536 10541 10542 10544 10548 10551 10555 10559 10560 10561 10563 10565 10567 10571
10657 10656 10654 10652 10650 10647 10645 10643 10641 10639 10637 10635 10633 10630 10628 10626 10624 10622 10619 10616 10614 10611 10609 10606 10603 10601 10598 10596 10593 10590 10586 10583 10580 10576 10573 10569 10566 10562 10559 10556 10553 10550 10547 10545 10542 10540 10538 10535 10533 10530 10528 10526 10525 10523 10521 10520 10518 10517 10516 10516 10516 10515 10516 10518 10520 10524 10523 10518 10520 10524 10523 10524 10530 10530 10532 10537 10540 10543 10548 10550 10552 10555 10557 10559 10562
10650 10649 10647 10645 10643 10640 10638 10636 10634 10632 10630 10628 10626 10624 10621 10619 10617 10615 10612 10610 10607 10605 10602 10600 10597 10594 10591 10588 10585 10582 10578 10575 10571 10567 10564 10560 10556 10553 10549 10546 10543 10540 10537 10534 10532 10530 10527 10525 10523 10520 10517 10515 10514 10512 10511 10509 10508 10507 10506 10506 10506 10505 10505 10506 10508 10511 10513 10510 10508 10512 10514 10514 10518 10520 10521 10526 10529 10532 10537 10540 10543 10546 10548 10551 10554
10643 10642 10640 10638 10636 10634 10632 10629 10628 10626 10624 10621 10619 10617 10615 10613 10611 10608 10606 10603 10601 10598 10596 10593 10590 10587 10584 10581 10577 10574 10570 10566 10562 10558 10555 10551 10547 10543 10540 10536 10533 10530 10527 10524 10522 10519 10517 10515 10513 10510 10508 10505 10503 10501 10500 10499 10497 10496 10496 10494 10494 10494 10494 10495 10496 10498 10501 10502 10498 10500 10503 10504 10507 10509 10510 10514 10518 10522 10526 10530 10533 10537 10539 10542 10545
10636 10635 10633 10632 10629 10627 10625 10623 10621 10619 10617 10615 10613 10611 10609 10606 10604 10602 10599 10597 10594 10592 10589 10586 10583 10580 10576 10573 10569 10566 10562 10558 10553 10549 10545 10541 10537 10533 10530 10527 10523 10520 10517 10514 10512 10509 10507 10505 10502 10500 10498 10495 10493 10491 10489 10488 10486 10485 10484 10484 10482 10483 10482 10482 10484 10486 10488 10491 10490 10489 10491 10493 10496 10498 10499 10503 10508 10511 10515 10519 10522 10526 10530 10534 10537
10629 10628 10627 10625 10623 10621 10619 10616 10614 10612 10610 10608 10607 10605 10602 10600 10597 10595 10592 10590 10587 10584 10581 10578 10575 10572 10569 10565 10561 10557 10553 10548 10544 10540 10535 10531 10527 10524 10520 10517 10514 10511 10507 10504 10502 10499 10497 10494 10491 10489 10486 10484 10482 10480 10478 10476 10475 10473 10472 10472 10470 10470 10471 10470 10471 10473 10475 10478 10479 10479 10479 10481 10484 10486 10486 10490 10497 10500 10503 10507 10511 10516 10521 10525 10529
10623 10622 10620 10618 10616 10614 10612 10609 10607 10605 10603 10602 10600 10598 10595 10593 10591 10588 10585 10583 10580 10577 10574 10571 10567 10564 10560 10556 10552 10547 10543 10538 10534 10530 10526 10522 10518 10514 10511 10508 10505 10501 10498 10495 10491 10489 10486 10484 10481 10478 10475 10472 10469 10468 10467 10465 10463 10461 10460 10459 10459 10458 10458 10458 10458 10460 10462 10464 10466 10467 10469 10470 10472 10473 10474 10478 10485 10489 10491 10495 10501 10505 10511 10516 10520
10617 10616 10614 10612 10610 10608 10605 10603 10600 10599 10597 10595 10593 10591 10588 10586 10584 10581 10578 10575 10572 10569 10566 10563 10559 10556 10552 10548 10543 10538 10533 10529 10525 10521 10517 10513 10509 10506 10502 10499 10495 10492 10488 10485 10481 10478 10476 10473 10470 10468 10464 10461 10458 10455 10454 10453 10452 10450 10447 10446 10446 10446 10445 10445 10445 10446 10448 10450 10452 10454 10456 10458 10460 10461 10462 10465 10472 10477 10479 10484 10490 10494 10500 10506 10510
10611 10609 10607 10606 10603 10601 10599 10596 10594 10593 10591 10589 10586 10584 10582 10579 10577 10574 10571 10568 10565 10562 10559 10555 10552 10547 10543 10539 10534 10529 10525 10520 10516 10512 10508 10504 10501 10497 10494 10490 10486 10483 10479 10475 10471 10468 10465 10462 10459 10457 10454 10450 10446 10443 10440 10439 10438 10437 10435 10433 10433 10432 10432 10431 10431 10432 10433 10436 10437 10439 10442 10445 10446 10448 10449 10453 10459 10464 10467 10473 10479 10484 10489 10495 10500
10605 10603 10601 10599 10597 10594 10592 10590 10588 10586 10584 10582 10580 10577 10575 10572 10570 10567 10564 10561 10558 10555 10552 10548 10544 10539 10535 10531 10526 10521 10516 10512 10508 10504 10500 10496 10492 10488 10485 10481 10478 10474 10470 10466 10462 10458 10454 10451 10448 10445 10442 10439 10434 10430 10426 10423 10422 10421 10420 10419 10418 10418 10418 10417 10416 10416 10417 10420 10422 10424 10427 10431 10432 10434 10437 10439 10444 10451 10456 10462 10468 10473 10477 10484 10490
10598 10597 10595 10592 10590 10588 10586 10584 10582 10580 10578 10576 10573 10571 10568 10566 10563 10561 10558 10555 10551 10548 10544 10540 10536 10532 10527 10523 10518 10513 10509 10504 10500 10496 10492 10488 10484 10480 10476 10473 10469 10465 10461 10457 10452 10448 10444 10440 10436 10433 10429 10426 10422 10417 10413 10409 10406 10404 10403 10402 10402 10402 10403 10403 10402 10400 10400 10403 10406 10408 10412 10416 10417 10420 10423 10426 10430 10437 10445 10450 10456 10461 10465 10473 10480
10592 10590 10588 10585 10583 10581 10580 10578 10576 10573 10571 10569 10567 10564 10562 10559 10556 10554 10551 10548 10544 10541 10537 10533 10529 10524 10519 10515 10510 10505 10501 10497 10493 10489 10485 10481 10477 10472 10468 10464 10460 10456 10452 10447 10442 10438 10434 10429 10425 10421 10417 10413 10409 10404 10400 10395 10392 10388 10386 10384 10384 10384 10386 10387 10388 10386 10385 10386 10390 10393 10396 10400 10403 10405 10409 10412 10417 10425 10432 10438 10443 10449 10455 10463 10470
10585 10583 10581 10578 10576 10575 10573 10571 10569 10567 10564 10562 10560 10557 10555 10552 10549 10547 10544 10540 10537 10533 10529 10525 10521 10516 10511 10507 10502 10498 10494 10490 10485 10481 10477 10472 10468 10464 10459 10455 10451 10446 10442 10438 10433 10428 10423 10418 10413 10408 10404 10400 10396 10391 10387 10383 10379 10375 10372 10369 10368 10367 10367 10369 10370 10371 10371 10371 10374 10377 10380 10385 10390 10391 10393 10398 10405 10412 10419 10424 10430 10437 10445 10453 10459
10579 10576 10574 10572 10570 10568 10566 10564 10562 10560 10557 10555 10553 10550 10547 10545 10542 10539 10536 10532 10529 10525 10522 10517 10513 10508 10503 10499 10495 10490 10486 10481 10477 10473 10468 10464 10459 10455 10450 10445 10440 10436 10431 10427 10422 10417 10412 10408 10402 10397 10392 10388 10384 10380 10375 10371 10368 10364 10360 10357 10354 10351 10351 10351 10352 10354 10356 10358 10360 10363 10364 10369 10376 10378 10379 10384 10392 10399 10405 10412 10418 10426 10435 10442 10448
10572 10570 10567 10566 10564 10562 10560 10557 10555 10553 10550 10548 10545 10543 10540 10537 10534 10531 10528 10524 10521 10517 10513 10509 10504 10500 10496 10491 10487 10483 10478 10473 10468 10464 10460 10455 10450 10446 10441 10435 10430 10425 10420 10416 10411 10406 10401 10397 10391 10386 10381 10376 10372 10369 10365 10361 10357 10353 10349 10345 10342 10338 10336 10336 10337 10338 10341 10344 10347 10350 10351 10354 10361 10365 10365 10370 10379 10386 10391 10399 10407 10416 10424 10431 10437
10566 10563 10561 10560 10558 10555 10553 10550 10548 10546 10543 10541 10538 10535 10533 10530 10527 10523 10520 10516 10513 10509 10505 10501 10496 10492 10488 10484 10479 10475 10470 10465 10460 10455 10451 10446 10441 10436 10431 10425 10420 10415 10410 10405 10400 10395 10389 10385 10380 10375 10370 10365 10361 10357 10354 10350 10346 10343 10338 10334 10330 10326 10324 10323 10324 10325 10328 10330 10333 10337 10338 10340 10346 10351 10352 10356 10366 10373 10379 10387 10396 10404 10412 10419 10426
10559 10557 10555 10553 10551 10549 10546 10543 10541 10539 10536 10533 10531 10528 10525 10522 10519 10516 10512 10509 10505 10501 10497 10493 10489 10485 10480 10476 10472 10467 10462 10457 10452 10447 10442 10437 10432 10427 10421 10416 10410 10405 10400 10394 10389 10385 10379 10373 10369 10364 10360 10355 10350 10347 10343 10338 10334 10331 10327 10322 10318 10315 10313 10311 10311 10313 10315 10317 10319 10323 10326 10328 10331 10336 10339 10344 10353 10361 10368 10377 10384 10391 10401 10409 10416
10553 10550 10548 10547 10545 10542 10539 10537 10534 10532 10529 10526 10523 10521 10518 10514 10511 10508 10505 10501 10497 10493 10489 10485 10481 10477 10473 10469 10464 10459 10454 10449 10444 10439 10434 10429 10424 10418 10413 10407 10401 10396 10390 10385 10379 10375 10370 10365 10359 10355 10350 10345 10341 10336 10332 10327 10323 10320 10316 10312 10307 10304 10302 10300 10300 10301 10303 10305 10307 10309 10313 10316 10318 10321 10326 10333 10341 10350 10359 10366 10372 10381 10392 10401 10406
10546 10544 10542 10541 10538 10535 10533 10530 10528 10525 10522 10519 10516 10513 10510 10507 10504 10501 10497 10494 10489 10485 10481 10477 10473 10470 10465 10461 10457 10452 10447 10442 10437 10432 10427 10421 10416 10410 10404 10399 10393 10387 10382 10377 10371 10366 10361 10357 10351 10346 10342 10337 10332 10327 10323 10318 10313 10310 10306 10302 10298 10294 10292 10290 10289 10289 10291 10295 10296 10298 10301 10304 10306 10308 10313 10321 10330 10340 10349 10355 10361 10372 10384 10391 10395
10540 10538 10536 10534 10532 10529 10526 10523 10521 10518 10515 10512 10509 10506 10503 10500 10497 10494 10490 10486 10482 10478 10474 10470 10466 10462 10458 10454 10450 10445 10440 10435 10430 10424 10419 10414 10408 10403 10397 10391 10386 10380 10374 10369 10364 10359 10353 10349 10344 10339 10334 10329 10324 10319 10314 10309 10304 10300 10297 10294 10290 10286 10282 10280 10280 10280 10281 10284 10287 10288 10290 10293 10295 10297 10302 10311 10320 10330 10339 10346 10353 10364 10375 10380 10386
10534 10531 10529 10527 10525 10522 10520 10517 10514 10511 10508 10505 10502 10498 10496 10493 10490 10486 10482 10478 10474 10470 10466 10463 10459 10455 10451 10447 10443 10439 10434 10428 10423 10417 10411 10406 10401 10395 10390 10384 10379 10373 10368 10362 10357 10352 10346 10342 10337 10332 10327 10322 10317 10311 10306 10301 10296 10291 10288 10285 10282 10279 10275 10272 10272 10272 10273 10275 10277 10279 10280 10282 10285 10289 10293 10301 10311 10321 10330 10337 10346 10356 10365 10371 10378
10527 10524 10522 10521 10518 10516 10513 10509 10506 10504 10501 10497 10494 10491 10489 10486 10483 10479 10475 10471 10467 10463 10459 10455 10452 10448 10444 10440 10436 10431 10426 10421 10416 10410 10404 10399 10394 10388 10383 10377 10372 10367 10362 10357 10351 10346 10340 10336 10332 10327 10322 10316 10311 10304 10298 10293 10288 10283 10280 10277 10274 10271 10268 10266 10265 10265 10266 10267 10268 10270 10272 10273 10277 10281 10285 10292 10303 10313 10322 10330 10339 10348 10356 10363 10371
10520 10518 10516 10514 10511 10509 10505 10502 10499 10496 10493 10490 10487 10484 10482 10479 10475 10472 10468 10464 10460 10456 10452 10449 10445 10441 10438 10434 10430 10425 10419 10413 10408 10402 10397 10392 10387 10382 10376 10371 10367 10362 10357 10352 10347 10341 10336 10331 10326 10322 10316 10310 10303 10297 10290 10285 10280 10276 10272 10269 10267 10264 10261 10260 10259 10259 10259 10260 10261 10262 10264 10266 10270 10274 10279 10285 10295 10306 10315 10323 10331 10340 10348 10356 10364
10513 10511 10509 10507 10504 10501 10498 10495 10492 10489 10486 10483 10480 10477 10475 10472 10468 10465 10461 10457 10453 10449 10445 10442 10438 10435 10431 10427 10423 10418 10413 10407 10401 10395 10390 10386 10381 10376 10371 10366 10361 10357 10352 10347 10342 10336 10330 10325 10320 10315 10309 10302 10296 10290 10284 10279 10274 10270 10266 10262 10260 10258 10256 10254 10253 10253 10253 10254 10255 10256 10259 10261 10264 10269 10273 10279 10288 10298 10307 10315 10324 10332 10340 10348 10357
10506 10504 10502 10499 10497 10494 10491 10488 10485 10482 10479 10476 10473 10471 10468 10465 10461 10458 10454 10451 10447 10442 10438 10435 10431 10428 10424 10420 10416 10411 10406 10400 10394 10389 10384 10379 10374 10369 10365 10361 10356 10352 10347 10342 10336 10330 10325 10319 10313 10308 10302 10296 10290 10285 10280 10274 10269 10265 10261 10257 10254 10253 10251 10249 10248 10248 10248 10249 10250 10252 10254 10256 10259 10264 10269 10274 10282 10292 10301 10309 10317 10325 10333 10342 10350
10499 10497 10495 10492 10490 10487 10484 10481 10478 10475 10472 10470 10467 10464 10461 10458 10455 10451 10448 10444 10440 10435 10432 10428 10425 10421 10418 10413 10409 10404 10399 10393 10388 10383 10378 10373 10369 10364 10359 10355 10351 10346 10341 10336 10330 10324 10318 10313 10307 10302 10297 10292 10287 10281 10277 10271 10265 10261 10257 10253 10250 10248 10246 10245 10244 10244 10244 10244 10245 10247 10249 10251 10254 10259 10264 10270 10277 10287 10295 10304 10311 10319 10327 10335 10343
10492 10490 10487 10485 10482 10479 10477 10474 10471 10469 10466 10463 10460 10457 10454 10451 10448 10445 10441 10437 10433 10429 10425 10422 10418 10415 10411 10406 10401 10396 10391 10386 10381 10377 10373 10368 10364 10359 10354 10350 10345 10340 10336 10330 10324 10319 10313 10308 10303 10298 10294 10288 10282 10276 10273 10268 10262 10257 10253 10250 10246 10244 10243 10241 10241 10240 10240 10241 10241 10243 10245 10247 10250 10254 10259 10265 10272 10281 10290 10298 10306 10313 10320 10328 10336
10485 10482 10480 10477 10475 10472 10469 10467 10464 10462 10459 10456 10453 10450 10447 10445 10442 10438 10434 10430 10426 10422 10419 10415 10412 10408 10404 10399 10395 10390 10385 10380 10375 10371 10367 10363 10358 10353 10349 10344 10339 10334 10329 10324 10319 10314 10309 10304 10300 10295 10290 10284 10277 10271 10267 10264 10260 10254 10250 10246 10243 10241 10240 10238 10238 10237 10237 10237 10238 10239 10241 10244 10247 10252 10256 10261 10268 10276 10285 10293 10300 10307 10314 10322 10330
10477 10475 10472 10470 10467 10465 10462 10460 10457 10455 10452 10449 10446 10444 10441 10438 10435 10431 10427 10423 10420 10416 10413 10409 10405 10402 10397 10393 10389 10384 10379 10375 10370 10366 10362 10357 10353 10348 10343 10339 10334 10330 10325 10321 10316 10311 10307 10302 10297 10292 10286 10281 10275 10268 10263 10259 10256 10252 10248 10244 10241 10239 10237 10236 10235 10235 10235 10235 10236 10237 10240 10242 10246 10250 10254 10259 10265 10272 10279 10287 10294 10301 10309 10316 10323
10470 10467 10465 10462 10460 10458 10455 10453 10450 10448 10445 10443 10440 10437 10434 10431 10428 10424 10420 10417 10413 10410 10406 10403 10399 10395 10391 10387 10383 10379 10374 10370 10366 10362 10358 10353 10349 10345 10340 10335 10331 10327 10322 10318 10313 10309 10304 10299 10294 10289 10284 10279 10273 10266 10260 10256 10253 10249 10245 10242 10239 10237 10235 10234 10233 10233 10233 10233 10234 10236 10239 10241 10244 10247 10251 10256 10262 10268 10275 10282 10289 10296 10303 10311 10319
10462 10460 10458 10455 10453 10451 10448 10446 10444 10441 10439 10436 10433 10430 10427 10424 10421 10417 10414 10410 10407 10403 10400 10396 10393 10388 10385 10381 10377 10373 10369 10365 10361 10357 10353 10349 10345 10341 10337 10332 10328 10324 10319 10315 10310 10306 10301 10296 10291 10286 10281 10277 10271 10265 10259 10255 10251 10247 10243 10240 10237 10235 10233 10232 10231 10231 10231 10231 10232 10234 10237 10239 10241 10244 10248 10253 10258 10265 10272 10279 10285 10292 10300 10307 10315
10455 10453 10450 10448 10446 10444 10442 10439 10437 10434 10432 10430 10427 10424 10421 10417 10414 10411 10407 10404 10401 10397 10393 10390 10386 10382 10379 10375 10372 10368 10364 10360 10356 10353 10349 10345 10341 10337 10333 10329 10325 10321 10317 10313 10308 10303 10298 10293 10289 10284 10279 10274 10269 10264 10258 10253 10249 10246 10242 10238 10236 10234 10232 10231 10230 10230 10229 10230 10231 10233 10235 10237 10239 10242 10246 10251 10256 10262 10268 10274 10281 10288 10296 10303 10310
10447 10445 10443 10442 10440 10437 10435 10433 10430 10428 10426 10423 10420 10417 10414 10411 10407 10404 10401 10397 10394 10391 10387 10384 10380 10377 10373 10370 10366 10362 10359 10355 10352 10348 10345 10341 10338 10334 10330 10326 10322 10318 10314 10309 10305 10300 10296 10292 10287 10282 10277 10272 10267 10262 10257 10252 10248 10245 10241 10238 10235 10232 10231 10230 10229 10229 10229 10229 10230 10232 10234 10236 10238 10240 10244 10248 10254 10259 10264 10270 10275 10282 10289 10296 10303
10440 10438 10436 10435 10433 10431 10429 10426 10424 10422 10420 10417 10414 10411 10408 10404 10401 10397 10394 10391 10388 10384 10381 10377 10374 10371 10368 10364 10361 10358 10354 10351 10347 10344 10341 10338 10335 10331 10328 10324 10320 10316 10312 10307 10303 10299 10294 10290 10285 10280 10275 10270 10265 10261 10256 10251 10247 10243 10240 10237 10234 10232 10230 10229 10228 10228 10228 10229 10230 10232 10234 10235 10237 10239 10242 10246 10250 10256 10261 10267 10272 10277 10284 10291 10298
10433 10431 10430 10428 10426 10424 10422 10420 10418 10416 10413 10411 10408 10405 10401 10398 10395 10391 10388 10385 10381 10378 10375 10372 10369 10366 10362 10359 10356 10353 10350 10347 10343 10340 10337 10335 10331 10328 10324 10321 10318 10314 10311 10306 10301 10297 10292 10288 10283 10279 10274 10268 10264 10260 10255 10251 10247 10242 10239 10236 10234 10231 10229 10228 10227 10227 10227 10228 10229 10230 10232 10234 10237 10239 10242 10245 10248 10252 10258 10263 10269 10274 10280 10286 10293
10427 10425 10424 10422 10420 10418 10416 10414 10412 10409 10407 10404 10401 10398 10395 10392 10389 10386 10382 10379 10376 10372 10369 10366 10363 10360 10357 10354 10351 10348 10345 10342 10340 10337 10333 10330 10328 10325 10322 10319 10316 10312 10308 10304 10299 10295 10290 10286 10281 10277 10272 10267 10262 10258 10254 10250 10246 10243 10239 10236 10233 10231 10229 10228 10227 10227 10227 10227 10228 10229 10231 10233 10235 10237 10240 10243 10247 10251 10255 10260 10265 10271 10276 10281 10288
10420 10419 10417 10415 10414 10412 10410 10408 10405 10403 10400 10397 10394 10391 10388 10385 10382 10379 10377 10374 10371 10368 10364 10360 10357 10354 10352 10349 10346 10343 10341 10338 10336 10333 10330 10327 10325 10322 10319 10316 10313 10309 10306 10302 10298 10293 10289 10284 10279 10275 10271 10266 10261 10257 10253 10249 10246 10242 10239 10236 10233 10231 10229 10227 10226 10226 10226 10226 10227 10228 10230 10232 10233 10234 10237 10241 10245 10249 10254 10258 10263 10268 10274 10281 10288
10414 10413 10411 10409 10407 10406 10403 10401 10399 10396 10393 10390 10388 10385 10382 10379 10376 10373 10371 10368 10365 10362 10359 10355 10352 10349 10346 10344 10341 10339 10336 10334 10331 10329 10326 10323 10321 10318 10315 10313 10310 10307 10304 10301 10297 10292 10287 10282 10278 10273 10269 10265 10260 10256 10252 10248 10245 10242 10239 10236 10233 10231 10229 10227 10226 10225 10225 10226 10226 10227 10229 10230 10231 10233 10236 10239 10242 10247 10251 10256 10260 10266 10273 10280 10286
10408 10407 10405 10403 10401 10399 10397 10394 10392 10389 10386 10383 10381 10378 10375 10372 10370 10367 10365 10362 10359 10356 10353 10350 10347 10344 10342 10339 10336 10334 10332 10329 10327 10325 10322 10320 10317 10315 10313 10311 10308 10305 10302 10299 10295 10291 10286 10281 10277 10272 10268 10264 10260 10256 10252 10248 10244 10241 10238 10236 10233 10231 10229 10227 10226 10225 10224 10225 10225 10226 10227 10228 10230 10232 10234 10237 10240 10244 10249 10253 10258 10264 10270 10275 10281
10402 10400 10398 10396 10394 10391 10389 10387 10385 10382 10380 10377 10374 10371 10369 10366 10363 10361 10358 10356 10353 10351 10348 10345 10343 10340 10338 10335 10333 10331 10328 10326 10324 10322 10320 10318 10316 10313 10311 10308 10305 10303 10300 10296 10293 10289 10285 10280 10276 10271 10267 10263 10259 10255 10252 10248 10244 10241 10238 10235 10233 10231 10229 10227 10226 10225 10224 10224 10224 10225 10226 10227 10229 10230 10232 10234 10238 10241 10245 10250 10255 10260 10265 10270 10275
10394 10393 10391 10389 10386 10384 10382 10380 10378 10376 10373 10370 10368 10365 10362 10360 10357 10355 10353 10350 10348 10345 10343 10340 10338 10335 10333 10331 10329 10327 10325 10323 10321 10319 10317 10315 10313 10310 10308 10305 10303 10300 10297 10293 10290 10287 10283 10279 10275 10270 10266 10262 10258 10254 10251 10248 10244 10241 10238 10236 10233 10231 10229 10227 10226 10225 10224 10223 10223 10224 10225 10226 10227 10229 10230 10232 10235 10238 10242 10246 10251 10256 10261 10265 10270
10386 10385 10383 10382 10380 10377 10375 10374 10371 10369 10367 10365 10362 10360 10357 10354 10351 10349 10347 10345 10342 10340 10338 10335 10333 10331 10329 10327 10325 10323 10321 10320 10318 10316 10314 10312 10310 10308 10305 10302 10299 10296 10293 10290 10287 10284 10280 10277 10273 10269 10265 10261 10257 10253 10250 10247 10244 10241 10239 10236 10234 10231 10229 10228 10226 10225 10223 10222 10222 10223 10223 10224 10226 10227 10229 10231 10233 10235 10239 10243 10247 10252 10257 10261 10266
10379 10378 10377 10375 10373 10371 10369 10367 10365 10363 10361 10359 10357 10354 10351 10348 10345 10344 10341 10339 10337 10335 10333 10331 10329 10327 10325 10324 10322 10319 10317 10315 10314 10313 10311 10309 10307 10305 10303 10300 10297 10294 10291 10288 10285 10281 10278 10275 10272 10268 10264 10261 10257 10253 10250 10246 10243 10241 10239 10236 10234 10232 10229 10228 10226 10225 10223 10222 10222 10222 10222 10223 10224 10225 10227 10229 10231 10233 10236 10239 10243 10247 10252 10257 10261
10373 10372 10370 10368 10366 10364 10362 10360 10359 10357 10355 10353 10351 10348 10345 10342 10340 10338 10336 10334 10333 10331 10329 10327 10325 10323 10322 10320 10318 10316 10314 10312 10311 10309 10307 10306 10304 10302 10300 10297 10294 10291 10288 10285 10282 10279 10276 10273 10270 10267 10264 10260 10257 10253 10250 10246 10243 10240 10238 10236 10234 10232 10230 10228 10226 10224 10223 10222 10221 10221 10221 10221 10222 10223 10225 10226 10228 10231 10233 10236 10239 10243 10247 10251 10256
10366 10365 10363 10362 10360 10358 10356 10354 10352 10351 10349 10347 10345 10342 10340 10337 10335 10333 10331 10329 10328 10326 10325 10323 10322 10320 10318 10316 10315 10313 10311 10310 10308 10306 10304 10302 10300 10298 10296 10294 10291 10289 10286 10283 10280 10277 10274 10271 10268 10265 10262 10259 10256 10253 10250 10246 10243 10240 10237 10235 10233 10231 10229 10227 10226 10224 10223 10222 10221 10220 10220 10220 10220 10221 10223 10224 10226 10228 10230 10233 10235 10238 10242 10246 10250
10359 10358 10357 10355 10354 10352 10350 10348 10346 10344 10343 10341 10339 10337 10334 10332 10330 10329 10327 10325 10323 10322 10321 10320 10318 10317 10315 10313 10312 10310 10308 10307 10305 10303 10301 10299 10297 10295 10293 10291 10288 10286 10283 10280 10278 10275 10272 10270 10267 10264 10261 10258 10255 10252 10249 10246 10243 10240 10237 10234 10232 10230 10228 10227 10226 10224 10223 10221 10221 10220 10219 10219 10219 10219 10220 10222 10223 10225 10227 10229 10232 10234 10237 10241 10245
10353 10352 10350 10349 10347 10346 10344 10342 10340 10338 10337 10335 10333 10331 10329 10327 10326 10324 10322 10321 10319 10318 10317 10315 10314 10313 10311 10310 10308 10307 10305 10303 10302 10300 10298 10296 10294 10292 10290 10288 10285 10283 10281 10278 10275 10273 10270 10267 10265 10262 10259 10257 10254 10251 10249 10246 10243 10240 10237 10234 10232 10230 10228 10226 10225 10224 10222 10221 10220 10219 10219 10218 10217 10217 10218 10219 10220 10222 10224 10226 10228 10230 10233 10236 10239
10347 10345 10344 10343 10342 10340 10339 10337 10335 10333 10331 10329 10327 10325 10324 10323 10321 10320 10318 10317 10315 10314 10313 10312 10310 10309 10307 10306 10304 10303 10301 10300 10298 10297 10295 10293 10291 10289 10287 10285 10282 10280 10278 10275 10273 10270 10268 10265 10263 10260 10257 10255 10253 10250 10248 10245 10242 10240 10237 10235 10232 10230 10227 10225 10224 10222 10221 10220 10219 10218 10217 10217 10216 10216 10216 10216 10217 10218 10220 10222 10224 10226 10228 10231 10234
10341 10339 10338 10337 10336 10334 10333 10331 10329 10327 10326 10324 10322 10321 10320 10318 10317 10316 10314 10313 10312 10310 10309 10308 10307 10305 10304 10302 10301 10299 10298 10296 10295 10293 10292 10290 10288 10286 10284 10281 10279 10277 10275 10272 10270 10268 10265 10263 10261 10258 10256 10253 10250 10248 10246 10243 10241 10239 10236 10234 10232 10230 10227 10225 10223 10221 10220 10219 10218 10217 10216 10216 10215 10215 10214 10214 10214 10215 10216 10218 10219 10221 10223 10225 10228
10335 10334 10332 10331 10330 10328 10327 10325 10324 10322 10321 10320 10318 10317 10315 10314 10313 10312 10311 10309 10308 10307 10306 10304 10303 10302 10300 10299 10297 10296 10294 10293 10291 10290 10288 10286 10284 10282 10280 10278 10276 10274 10272 10269 10267 10265 10262 10260 10258 10256 10253 10251 10249 10246 10244 10242 10240 10237 10235 10233 10231 10229 10227 10225 10223 10221 10219 10218 10216 10215 10215 10214 10213 10213 10213 10212 10212 10212 10212 10213 10215 10216 10218 10220 10222
10329 10328 10327 10325 10324 10323 10321 10320 10319 10318 10317 10315 10314 10313 10312 10310 10309 10308 10307 10305 10304 10303 10302 10301 10300 10298 10297 10295 10294 10292 10290 10289 10287 10286 10284 10282 10281 10279 10277 10275 10273 10270 10268 10266 10264 10261 10259 10258 10255 10253 10251 10249 10246 10244 10242 10240 10237 10235 10234 10232 10229 10228 10226 10224 10222 10220 10219 10217 10215 10214 10213 10212 10211 10211 10210 10210 10210 10210 10210 10210 10210 10211 10213 10214 10216